Location: Observatoire de l'Aigle
(47.0607°N, 71.3152°W)
Time: 02:57:38
(UTC-04:00)

Amateur Radio Satellites - All Passes

Search period start: 26 October 2014 02:27
Search period end: 27 October 2014 02:27
Location: Observatoire de l'Aigle, 47.0607°N, 71.3152°W

Satellite Date Start Highest point End Downlink Frequencies (MHz)
Time Altitude Azimuth
TMSAT-1 26 Oct 02:34:33 02:37:53 17° 89° (E) 02:41:12 436.925 FM
AO-27 26 Oct 02:42:09 02:47:11 45° 99° (E) 02:52:10 436.795 MHz FM
AO-Echo 26 Oct 02:52:34 02:57:55 73° 103° (ESE) 03:03:13 ?
Oscar 16 26 Oct 03:07:32 03:12:28 49° 291° (WNW) 03:17:23 437.025 USB, Beacon 2401.1428
Sapphire 26 Oct 03:14:48 03:19:32 32° 111° (ESE) 03:24:19 437.095 MHz 1200 baud AX-25 AFSK
Uribyol 2 26 Oct 03:29:10 03:34:22 71° 288° (WNW) 03:39:32 436.500 FM
ITAMSAT 1 26 Oct 03:35:31 03:40:44 67° 288° (WNW) 03:45:53 435.822 SSB
PCSat 26 Oct 03:36:35 03:41:48 52° 116° (ESE) 03:47:04 145.825 MHz
RS-15 26 Oct 03:48:09 03:57:49 33° 14° (NNE) 04:07:42 29.354 - 29.394 USB, Beacon 29.352 USB
OPAL 26 Oct 03:55:27 03:59:50 29° 61° (ENE) 04:04:11 ?
JAS-1B 26 Oct 04:00:30 04:06:19 36° 296° (WNW) 04:13:04 435.800 - 435.900 CW/SSB
Oscar 19 26 Oct 04:01:45 04:05:19 20° 301° (WNW) 04:08:54 437.125 CW, 437.150 USB
Gurwin Techsat 1B 26 Oct 04:02:41 04:07:59 70° 288° (WNW) 04:13:16 435.225 FM
TMSAT-1 26 Oct 04:13:04 04:18:23 75° 287° (WNW) 04:23:40 436.925 FM
AO-7 26 Oct 04:16:39 04:24:03 34° 96° (E) 04:31:25 29.400 - 29.500 MHz
JAS-2 26 Oct 04:16:55 04:19:01 11° 79° (E) 04:21:08 435.800 - 435.900 CW/SSB, 435.910 FM
AO-27 26 Oct 04:22:04 04:26:30 29° 297° (WNW) 04:30:55 436.795 MHz FM
AO-Echo 26 Oct 04:32:24 04:36:07 20° 301° (WNW) 04:39:50 ?
Uosat F 26 Oct 04:38:59 04:43:30 32° 96° (E) 04:48:00 435.120 FM
Sapphire 26 Oct 04:57:36 05:02:49 47° 311° (NW) 05:08:04 437.095 MHz 1200 baud AX-25 AFSK
Uribyol 2 26 Oct 05:10:51 05:12:56 12° 307° (NW) 05:15:00 436.500 FM
ITAMSAT 1 26 Oct 05:17:28 05:19:16 12° 308° (NW) 05:21:03 435.822 SSB
PCSat 26 Oct 05:20:37 05:25:28 32° 317° (NW) 05:30:21 145.825 MHz
OPAL 26 Oct 05:33:40 05:38:33 43° 259° (W) 05:43:24 ?
STRAND 1 26 Oct 05:41:53 05:46:19 30° 64° (ENE) 05:50:46 ?
Gurwin Techsat 1B 26 Oct 05:44:54 05:47:01 12° 307° (NW) 05:49:08 435.225 FM
TMSAT-1 26 Oct 05:55:01 05:57:25 13° 306° (NW) 05:59:48 436.925 FM
JAS-2 26 Oct 05:57:59 06:05:38 56° 99° (E) 06:13:16 435.800 - 435.900 CW/SSB, 435.910 FM
RS-15 26 Oct 06:01:44 06:12:46 64° 44° (NE) 06:24:13 29.354 - 29.394 USB, Beacon 29.352 USB
AO-7 26 Oct 06:09:08 06:17:18 63° 296° (WNW) 06:25:29 29.400 - 29.500 MHz
Uosat F 26 Oct 06:17:42 06:22:19 37° 294° (WNW) 06:26:55 435.120 FM
Hamsat 26 Oct 06:34:32 06:38:44 68° 102° (ESE) 06:42:56 145.90 MHz
Sapphire 26 Oct 06:44:47 06:47:39 14° 334° (NNW) 06:50:31 437.095 MHz 1200 baud AX-25 AFSK
SO-67 26 Oct 06:52:27 06:54:05 13° 90° (E) 06:55:43 435.3500 MHz FM
PCSat 26 Oct 07:08:55 07:10:40 11° 341° (NNW) 07:12:26 145.825 MHz
STRAND 1 26 Oct 07:20:32 07:25:22 41° 262° (W) 07:30:14 ?
Saudisat 1A 26 Oct 07:26:29 07:30:46 55° 122° (ESE) 07:35:05 436.775 MHz
JAS-2 26 Oct 07:43:22 07:50:22 40° 298° (WNW) 07:57:29 435.800 - 435.900 CW/SSB, 435.910 FM
AO-7 26 Oct 08:03:21 08:08:34 19° 318° (NW) 08:13:47 29.400 - 29.500 MHz
Hamsat 26 Oct 08:11:57 08:14:11 14° 299° (WNW) 08:16:25 145.90 MHz
RS-15 26 Oct 08:14:29 08:24:50 46° 249° (WSW) 08:35:36 29.354 - 29.394 USB, Beacon 29.352 USB
MaSat-1 26 Oct 08:23:21 08:25:57 42° 57° (ENE) 08:28:20 437.345 MHz
SO-67 26 Oct 08:24:00 08:27:19 44° 287° (WNW) 08:30:37 435.3500 MHz FM
Saudisat 1A 26 Oct 09:06:55 09:10:37 26° 322° (NW) 09:14:21 436.775 MHz
HO-68 26 Oct 09:10:10 09:16:48 38° 97° (E) 09:23:22 435.675 MHz FM
JAS-2 26 Oct 09:32:06 09:33:25 11° 319° (NW) 09:34:45 435.800 - 435.900 CW/SSB, 435.910 FM
ZACube-1 26 Oct 09:50:35 09:51:49 11° 87° (E) 09:53:03 437.345 MHz
UKube-1 26 Oct 09:50:54 09:54:38 27° 95° (E) 09:58:21 145.840 MHz, 145.915 MHz
Sapphire 26 Oct 10:16:32 10:19:42 15° 28° (NNE) 10:22:52 437.095 MHz 1200 baud AX-25 AFSK
Oscar 11 26 Oct 10:30:40 10:34:58 67° 102° (ESE) 10:39:15 145.825 FM, Beacon 2401.500 USB
FUNcube-1 26 Oct 10:32:54 10:36:41 30° 95° (E) 10:40:23 145.950 - 145.970 MHz USB
PCSat 26 Oct 10:38:37 10:42:35 20° 34° (NE) 10:46:32 145.825 MHz
HO-68 26 Oct 10:57:47 11:04:40 50° 296° (WNW) 11:11:32 435.675 MHz FM
KITSAT 1 26 Oct 11:20:27 11:27:37 37° 110° (ESE) 11:34:47 435.175 FM
ZACube-1 26 Oct 11:24:32 11:28:49 77° 285° (WNW) 11:32:59 437.345 MHz
UKube-1 26 Oct 11:26:55 11:30:52 34° 293° (WNW) 11:34:47 145.840 MHz, 145.915 MHz
ISS 26 Oct 11:36:14 11:37:58 14° 134° (SE) 11:39:43 145.800 FM
SO-50 26 Oct 11:44:29 11:47:24 17° 111° (ESE) 11:50:22 436.795 FM
Sapphire 26 Oct 11:59:04 12:04:25 53° 51° (NE) 12:09:43 437.095 MHz 1200 baud AX-25 AFSK
Oscar 19 26 Oct 12:03:52 12:07:37 21° 60° (ENE) 12:11:21 437.125 CW, 437.150 USB
Oscar 10/S400 26 Oct 12:07:55 12:21:20 19° 148° (SSE) 12:33:53 145.825 - 145.975 CW/USB, Beacon 145.810 USB
Oscar 11 26 Oct 12:08:11 12:10:39 15° 300° (WNW) 12:13:07 145.825 FM, Beacon 2401.500 USB
FUNcube-1 26 Oct 12:09:22 12:13:01 28° 294° (WNW) 12:16:35 145.950 - 145.970 MHz USB
PCSat 26 Oct 12:21:25 12:26:53 80° 56° (NE) 12:32:19 145.825 MHz
AO-27 26 Oct 12:26:42 12:29:43 16° 56° (NE) 12:32:45 436.795 MHz FM
AO-Echo 26 Oct 12:31:50 12:35:18 19° 59° (ENE) 12:38:51 ?
HO-68 26 Oct 12:47:51 12:50:46 13° 318° (NW) 12:53:40 435.675 MHz FM
Oscar 16 26 Oct 12:48:25 12:53:21 48° 69° (ENE) 12:58:17 437.025 USB, Beacon 2401.1428
JAS-1B 26 Oct 12:59:30 13:05:06 52° 68° (ENE) 13:10:36 435.800 - 435.900 CW/SSB
ISS 26 Oct 13:10:51 13:14:10 75° 152° (SSE) 13:17:31 145.800 FM
Uribyol 2 26 Oct 13:11:20 13:16:03 36° 65° (ENE) 13:20:47 436.500 FM
KITSAT 1 26 Oct 13:14:38 13:22:38 63° 311° (NW) 13:30:41 435.175 FM
ITAMSAT 1 26 Oct 13:17:44 13:22:30 38° 66° (ENE) 13:27:19 435.822 SSB
SO-50 26 Oct 13:22:53 13:27:24 70° 310° (NW) 13:32:05 436.795 FM
AO-7 26 Oct 13:30:39 13:35:36 18° 41° (NE) 13:40:34 29.400 - 29.500 MHz
Oscar 19 26 Oct 13:41:24 13:46:30 64° 258° (WSW) 13:51:38 437.125 CW, 437.150 USB
Sapphire 26 Oct 13:42:59 13:47:34 28° 250° (WSW) 13:52:07 437.095 MHz 1200 baud AX-25 AFSK
Gurwin Techsat 1B 26 Oct 13:47:36 13:52:27 38° 66° (ENE) 13:57:20 435.225 FM
TMSAT-1 26 Oct 13:57:48 14:02:34 35° 65° (ENE) 14:07:21 436.925 FM
AO-27 26 Oct 14:03:17 14:08:31 90° 255° (WSW) 14:13:47 436.795 MHz FM
PCSat 26 Oct 14:06:09 14:09:38 18° 255° (WSW) 14:13:06 145.825 MHz
AO-Echo 26 Oct 14:08:37 14:13:31 67° 258° (WSW) 14:18:38 ?
Saudisat 1A 26 Oct 14:11:18 14:14:44 21° 35° (NE) 14:18:09 436.775 MHz
Uosat F 26 Oct 14:21:30 14:22:12 10° 52° (NE) 14:22:54 435.120 FM
Oscar 16 26 Oct 14:28:42 14:32:55 25° 267° (W) 14:37:10 437.025 USB, Beacon 2401.1428
UOSAT-12 26 Oct 14:36:58 14:41:36 70° 124° (SE) 14:46:19 437.025 FM, 437.400 FM
ISS 26 Oct 14:47:53 14:51:03 39° 351° (N) 14:54:14 145.800 FM
Uribyol 2 26 Oct 14:50:45 14:55:30 35° 264° (W) 15:00:18 436.500 FM
JAS-1B 26 Oct 14:51:36 14:56:12 24° 267° (W) 15:00:44 435.800 - 435.900 CW/SSB
ITAMSAT 1 26 Oct 14:57:22 15:02:02 33° 264° (W) 15:06:45 435.822 SSB
SO-50 26 Oct 15:05:43 15:08:50 17° 332° (NNW) 15:11:59 436.795 FM
KITSAT 1 26 Oct 15:13:18 15:19:46 25° 337° (NNW) 15:26:16 435.175 FM
AO-7 26 Oct 15:18:43 15:26:46 60° 63° (ENE) 15:34:52 29.400 - 29.500 MHz
Gurwin Techsat 1B 26 Oct 15:27:40 15:32:27 34° 264° (W) 15:37:16 435.225 FM
TMSAT-1 26 Oct 15:37:35 15:42:27 36° 264° (W) 15:47:21 436.925 FM
AO-27 26 Oct 15:46:23 15:48:46 13° 273° (W) 15:51:09 436.795 MHz FM
Saudisat 1A 26 Oct 15:50:21 15:54:48 76° 235° (SW) 15:59:12 436.775 MHz
Uosat F 26 Oct 15:55:02 15:59:59 61° 71° (ENE) 16:04:58 435.120 FM
JAS-2 26 Oct 16:13:59 16:19:26 33° 59° (ENE) 16:25:29 435.800 - 435.900 CW/SSB, 435.910 FM
UOSAT-12 26 Oct 16:18:22 16:22:12 24° 325° (NW) 16:26:06 437.025 FM, 437.400 FM
ISS 26 Oct 16:24:59 16:28:12 42° 11° (NNE) 16:31:24 145.800 FM
AO-7 26 Oct 17:12:31 17:19:56 36° 264° (W) 17:27:26 29.400 - 29.500 MHz
KITSAT 1 26 Oct 17:12:43 17:18:25 20° 7° (N) 17:24:06 435.175 FM
Hamsat 26 Oct 17:30:32 17:34:42 70° 74° (ENE) 17:38:53 145.90 MHz
Uosat F 26 Oct 17:35:38 17:39:11 19° 269° (W) 17:42:45 435.120 FM
OPAL 26 Oct 17:40:22 17:44:58 36° 99° (E) 17:49:30 ?
JAS-2 26 Oct 17:58:11 18:04:08 54° 262° (W) 18:10:56 435.800 - 435.900 CW/SSB, 435.910 FM
ISS 26 Oct 18:01:42 18:05:01 61° 211° (SSW) 18:08:18 145.800 FM
HO-68 26 Oct 18:02:09 18:02:43 10° 38° (NE) 18:03:16 435.675 MHz FM
UOSAT-12 26 Oct 18:03:24 18:04:04 10° 348° (NNW) 18:04:44 437.025 FM, 437.400 FM
SO-50 26 Oct 18:31:41 18:34:06 14° 22° (NNE) 18:36:32 436.795 FM
SO-67 26 Oct 18:58:58 19:02:24 90° 244° (WSW) 19:05:52 435.3500 MHz FM
KITSAT 1 26 Oct 19:09:09 19:16:32 37° 36° (NE) 19:23:52 435.175 FM
Hamsat 26 Oct 19:09:28 19:11:09 12° 272° (W) 19:12:49 145.90 MHz
OPAL 26 Oct 19:19:23 19:23:47 32° 298° (WNW) 19:28:09 ?
STRAND 1 26 Oct 19:27:38 19:32:43 54° 100° (E) 19:37:44 ?
ISS 26 Oct 19:40:21 19:41:07 11° 228° (SW) 19:41:53 145.800 FM
HO-68 26 Oct 19:41:58 19:48:30 40° 60° (ENE) 19:55:04 435.675 MHz FM
UOSAT-12 26 Oct 19:45:16 19:46:27 11° 14° (NNE) 19:47:37 437.025 FM, 437.400 FM
SO-50 26 Oct 20:11:19 20:15:54 42° 44° (NE) 20:20:32 436.795 FM
RS-15 26 Oct 20:32:24 20:40:28 25° 101° (ESE) 20:48:28 29.354 - 29.394 USB, Beacon 29.352 USB
UKube-1 26 Oct 20:49:05 20:53:03 35° 67° (ENE) 20:57:02 145.840 MHz, 145.915 MHz
ZACube-1 26 Oct 20:49:14 20:52:02 16° 61° (ENE) 20:54:49 437.345 MHz
KITSAT 1 26 Oct 21:04:35 21:12:40 76° 239° (WSW) 21:20:42 435.175 FM
STRAND 1 26 Oct 21:07:30 21:11:34 24° 299° (WNW) 21:15:37 ?
UOSAT-12 26 Oct 21:24:09 21:28:12 27° 37° (NE) 21:32:13 437.025 FM, 437.400 FM
Oscar 11 26 Oct 21:28:22 21:32:41 76° 75° (ENE) 21:37:01 145.825 FM, Beacon 2401.500 USB
HO-68 26 Oct 21:29:13 21:36:06 49° 260° (W) 21:43:02 435.675 MHz FM
FUNcube-1 26 Oct 21:31:45 21:35:57 38° 69° (ENE) 21:40:07 145.950 - 145.970 MHz USB
SO-50 26 Oct 21:52:03 21:56:25 34° 243° (WSW) 22:00:48 436.795 FM
ZACube-1 26 Oct 22:23:24 22:27:57 68° 258° (WSW) 22:32:27 437.345 MHz
UKube-1 26 Oct 22:25:39 22:29:18 26° 265° (W) 22:32:59 145.840 MHz, 145.915 MHz
RS-15 26 Oct 22:40:12 22:51:11 86° 125° (SE) 23:02:12 29.354 - 29.394 USB, Beacon 29.352 USB
KITSAT 1 26 Oct 23:01:57 23:06:44 17° 260° (W) 23:11:30 435.175 FM
UOSAT-12 26 Oct 23:04:02 23:08:42 59° 238° (WSW) 23:13:16 437.025 FM, 437.400 FM
Oscar 11 26 Oct 23:07:48 23:09:24 12° 272° (W) 23:11:01 145.825 FM, Beacon 2401.500 USB
FUNcube-1 26 Oct 23:08:38 23:12:25 25° 266° (W) 23:16:11 145.950 - 145.970 MHz USB
MaSat-1 26 Oct 23:36:53 23:40:53 81° 118° (ESE) 23:44:29 437.345 MHz
JAS-1B 27 Oct 00:40:36 00:43:22 12° 86° (E) 00:46:17 435.800 - 435.900 CW/SSB
RS-15 27 Oct 00:54:46 01:04:53 41° 333° (NNW) 01:15:09 29.354 - 29.394 USB, Beacon 29.352 USB
Oscar 16 27 Oct 00:58:49 01:01:05 13° 87° (E) 01:03:19 437.025 USB, Beacon 2401.1428
MaSat-1 27 Oct 01:15:05 01:16:49 13° 314° (NW) 01:18:28 437.345 MHz
Oscar 19 27 Oct 01:50:02 01:54:45 36° 97° (E) 01:59:26 437.125 CW, 437.150 USB
Gurwin Techsat 1B 27 Oct 02:03:00 02:04:30 11° 85° (E) 02:05:59 435.225 FM
AO-Echo 27 Oct 02:12:48 02:17:37 34° 95° (E) 02:22:23 ?
AO-27 27 Oct 02:13:48 02:18:10 26° 93° (E) 02:22:28 436.795 MHz FM
